Weather History for Grand Rapids, MN

Change the Weather History Date:

Tuesday, February 12, 2013

  Actual Average Record
Temperature  
Mean Temperature 16 °F -  
Max Temperature 30 °F 23 °F 56 °F (1921)
Min Temperature 3 °F 0 °F -35 °F (1936)
Degree Days  
Heating Degree Days 48    
Moisture  
Dew Point 14 °F    
Average Humidity 79    
Maximum Humidity 92    
Minimum Humidity 64    
Precipitation  
Precipitation 0.00 in - - ()
Sea Level Pressure  
Sea Level Pressure 29.78 in    
Wind  
Wind Speed 6 mph (SW)    
Max Wind Speed 10 mph    
Max Gust Speed 16 mph    
Visibility 10 miles    
Events      
Averages and records for this station are not official NWS values.
T = Trace of Precipitation, MM = Missing Value Source: NWS Daily Summary

Daily Weather History Graph

Daily Weather History Graph

Search for Another Location

Airport:

Trip Planner

Search our weather history database for the weather conditions in past years. The results will help you decide how hot, cold, wet, or windy it might be!

Date:

Astronomy

Feb. 12, 2013 Rise Set
Actual Time 7:23 AM CST 5:33 PM CST
Civil Twilight 6:51 AM CST 6:05 PM CST
Nautical Twilight 6:15 AM CST 6:41 PM CST
Astronomical Twilight 5:40 AM CST 7:17 PM CST
Moon 8:06 AM CST (2/12) 8:51 PM CST (2/12)
Length of Visible Light 11h 14m
Length of Day
10h 10m
Waxing Crescent, 7% of the Moon is Illuminated
Feb 12
Waxing Crescent
Feb 17
First Quarter
Feb 25
Full
Mar 4
Last Quarter
Mar 11
New

Hourly Weather History & Observations

Time (CST) Temp. Windchill Dew Point Humidity Pressure Visibility Wind Dir Wind Speed Gust Speed Precip Events Conditions
12:15 AM 10.4 °F 4.0 °F 8.6 °F 92% 29.91 in 10.0 mi West 3.5 mph - N/A   Mostly Cloudy
12:35 AM 10.4 °F 2.2 °F 6.8 °F 85% 29.91 in 10.0 mi SW 4.6 mph - N/A   Scattered Clouds
12:55 AM 8.6 °F 0.1 °F 5.0 °F 85% 29.90 in 10.0 mi SW 4.6 mph - N/A   Partly Cloudy
1:15 AM 8.6 °F -1.3 °F 6.8 °F 92% 29.89 in 10.0 mi SW 5.8 mph - N/A   Clear
1:35 AM 8.6 °F 0.1 °F 6.8 °F 92% 29.89 in 10.0 mi SW 4.6 mph - N/A   Clear
1:55 AM 8.6 °F 0.1 °F 3.2 °F 79% 29.88 in 10.0 mi SSW 4.6 mph - N/A   Clear
2:15 AM 6.8 °F -3.5 °F 3.2 °F 85% 29.87 in 10.0 mi SSW 5.8 mph - N/A   Clear
2:35 AM 3.2 °F -4.2 °F 1.4 °F 92% 29.88 in 10.0 mi SSW 3.5 mph - N/A   Clear
2:55 AM 6.8 °F -0.1 °F 3.2 °F 85% 29.88 in 10.0 mi WSW 3.5 mph - N/A   Scattered Clouds
3:15 AM 8.6 °F 2.0 °F 6.8 °F 92% 29.87 in 10.0 mi SW 3.5 mph - N/A   Overcast
3:35 AM 8.6 °F - 6.8 °F 92% 29.87 in 10.0 mi Calm Calm - N/A   Overcast
3:55 AM 10.4 °F 4.0 °F 8.6 °F 92% 29.86 in 10.0 mi SSW 3.5 mph - N/A   Overcast
4:15 AM 10.4 °F 0.8 °F 8.6 °F 92% 29.86 in 10.0 mi SW 5.8 mph - N/A   Overcast
4:35 AM 12.2 °F 1.7 °F 8.6 °F 85% 29.86 in 10.0 mi SSW 6.9 mph - N/A   Overcast
4:55 AM 12.2 °F 2.9 °F 8.6 °F 85% 29.86 in 10.0 mi SSW 5.8 mph - N/A   Overcast
5:15 AM 10.4 °F -0.4 °F 8.6 °F 92% 29.86 in 10.0 mi SSE 6.9 mph - N/A   Overcast
5:35 AM 10.4 °F -0.4 °F 8.6 °F 92% 29.85 in 10.0 mi South 6.9 mph - N/A   Overcast
5:55 AM 10.4 °F -1.5 °F 8.6 °F 92% 29.84 in 10.0 mi South 8.1 mph - N/A   Overcast
6:15 AM 12.2 °F 0.7 °F 8.6 °F 85% 29.84 in 10.0 mi SSE 8.1 mph - N/A   Overcast
6:35 AM 12.2 °F -0.2 °F 8.6 °F 85% 29.83 in 10.0 mi South 9.2 mph - N/A   Overcast
6:55 AM 12.2 °F 1.7 °F 8.6 °F 85% 29.82 in 10.0 mi SSE 6.9 mph - N/A   Overcast
7:15 AM 10.4 °F -1.5 °F 8.6 °F 92% 29.82 in 10.0 mi SSE 8.1 mph - N/A   Overcast
7:35 AM 12.2 °F 0.7 °F 8.6 °F 85% 29.82 in 10.0 mi South 8.1 mph - N/A   Overcast
7:55 AM 12.2 °F -0.2 °F 10.4 °F 92% 29.81 in 10.0 mi SSE 9.2 mph - N/A   Overcast
8:15 AM 12.2 °F 0.7 °F 10.4 °F 92% 29.80 in 10.0 mi South 8.1 mph - N/A   Overcast
8:35 AM 12.2 °F -0.2 °F 10.4 °F 92% 29.81 in 10.0 mi South 9.2 mph - N/A   Overcast
8:55 AM 14.0 °F 2.0 °F 10.4 °F 86% 29.80 in 10.0 mi South 9.2 mph - N/A   Overcast
9:15 AM 15.8 °F 3.4 °F 12.2 °F 86% 29.80 in 10.0 mi South 10.4 mph - N/A   Overcast
9:35 AM 15.8 °F 3.4 °F 12.2 °F 86% 29.80 in 10.0 mi South 10.4 mph - N/A   Overcast
9:55 AM 15.8 °F 6.1 °F 12.2 °F 86% 29.80 in 10.0 mi SSW 6.9 mph - N/A   Overcast
10:15 AM 17.6 °F 6.4 °F 12.2 °F 79% 29.79 in 10.0 mi South 9.2 mph - N/A   Overcast
10:35 AM 17.6 °F 7.3 °F 14.0 °F 86% 29.79 in 4.0 mi South 8.1 mph - N/A   Overcast
10:55 AM 19.4 °F 9.5 °F 14.0 °F 80% 29.79 in 10.0 mi South 8.1 mph - N/A   Overcast
11:15 AM 19.4 °F 7.9 °F 14.0 °F 80% 29.78 in 10.0 mi SSW 10.4 mph - N/A   Overcast
11:35 AM 21.2 °F 10.9 °F 15.8 °F 80% 29.78 in 10.0 mi SSW 9.2 mph - N/A   Overcast
11:55 AM 21.2 °F 11.7 °F 15.8 °F 80% 29.77 in 10.0 mi South 8.1 mph - N/A   Overcast
12:15 PM 21.2 °F 12.6 °F 15.8 °F 80% 29.76 in 10.0 mi SW 6.9 mph - N/A   Overcast
12:35 PM 23.0 °F 14.7 °F 15.8 °F 74% 29.75 in 10.0 mi SSW 6.9 mph - N/A   Overcast
12:55 PM 24.8 °F 16.1 °F 17.6 °F 74% 29.74 in 10.0 mi SSW 8.1 mph - N/A   Scattered Clouds
1:15 PM 24.8 °F 16.1 °F 17.6 °F 74% 29.74 in 10.0 mi SSW 8.1 mph - N/A   Clear
1:35 PM 26.6 °F 18.2 °F 17.6 °F 69% 29.73 in 10.0 mi SSW 8.1 mph - N/A   Clear
1:55 PM 26.6 °F 17.5 °F 17.6 °F 69% 29.73 in 10.0 mi SSW 9.2 mph - N/A   Clear
2:15 PM 28.4 °F 21.2 °F 19.4 °F 69% 29.73 in 10.0 mi WSW 6.9 mph - N/A   Clear
2:35 PM 28.4 °F 20.4 °F 17.6 °F 64% 29.73 in 10.0 mi West 8.1 mph - N/A   Clear
2:55 PM 28.4 °F 20.4 °F 17.6 °F 64% 29.73 in 10.0 mi West 8.1 mph - N/A   Clear
3:15 PM 28.4 °F 21.2 °F 19.4 °F 69% 29.73 in 10.0 mi West 6.9 mph - N/A   Clear
3:35 PM 30.2 °F 26.7 °F 19.4 °F 64% 29.73 in 10.0 mi West 3.5 mph - N/A   Clear
3:55 PM 30.2 °F 24.3 °F 19.4 °F 64% 29.73 in 10.0 mi SW 5.8 mph - N/A   Clear
4:15 PM 30.2 °F 25.4 °F 19.4 °F 64% 29.73 in 10.0 mi WSW 4.6 mph - N/A   Scattered Clouds
4:35 PM 30.2 °F 26.7 °F 19.4 °F 64% 29.73 in 10.0 mi WSW 3.5 mph - N/A   Overcast
4:55 PM 30.2 °F 26.7 °F 19.4 °F 64% 29.73 in 10.0 mi SW 3.5 mph - N/A   Overcast
5:15 PM 28.4 °F 24.6 °F 19.4 °F 69% 29.73 in 10.0 mi SSW 3.5 mph - N/A   Overcast
5:35 PM 28.4 °F 23.3 °F 19.4 °F 69% 29.73 in 10.0 mi SSW 4.6 mph - N/A   Overcast
5:55 PM 28.4 °F 23.3 °F 19.4 °F 69% 29.72 in 10.0 mi SSW 4.6 mph - N/A   Overcast
6:15 PM 28.4 °F 21.2 °F 19.4 °F 69% 29.72 in 10.0 mi SSW 6.9 mph - N/A   Overcast
6:35 PM 28.4 °F 22.2 °F 19.4 °F 69% 29.71 in 10.0 mi SSW 5.8 mph - N/A   Mostly Cloudy
6:55 PM 28.4 °F 19.7 °F 19.4 °F 69% 29.70 in 10.0 mi SSW 9.2 mph - N/A   Mostly Cloudy
7:15 PM 28.4 °F 21.2 °F 19.4 °F 69% 29.71 in 10.0 mi SW 6.9 mph - N/A   Scattered Clouds
7:35 PM 28.4 °F 21.2 °F 19.4 °F 69% 29.71 in 10.0 mi SW 6.9 mph - N/A   Partly Cloudy
7:55 PM 28.4 °F 22.2 °F 19.4 °F 69% 29.71 in 10.0 mi SW 5.8 mph - N/A   Partly Cloudy
8:15 PM 28.4 °F 24.6 °F 19.4 °F 69% 29.70 in 10.0 mi SW 3.5 mph - N/A   Mostly Cloudy
8:35 PM 26.6 °F 18.2 °F 19.4 °F 74% 29.70 in 10.0 mi WSW 8.1 mph - N/A   Mostly Cloudy
8:55 PM 26.6 °F 18.2 °F 19.4 °F 74% 29.70 in 10.0 mi WSW 8.1 mph - N/A   Overcast
9:35 PM 26.6 °F 18.2 °F 19.4 °F 74% 29.70 in 10.0 mi West 8.1 mph - N/A   Overcast
9:55 PM 26.6 °F 18.2 °F 19.4 °F 74% 29.70 in 10.0 mi West 8.1 mph 16.1 mph N/A   Overcast
10:15 PM 26.6 °F 18.2 °F 19.4 °F 74% 29.70 in 10.0 mi West 8.1 mph - N/A   Overcast
10:35 PM 26.6 °F 18.2 °F 19.4 °F 74% 29.69 in 10.0 mi West 8.1 mph - N/A   Overcast
10:55 PM 26.6 °F 18.2 °F 19.4 °F 74% 29.69 in 10.0 mi West 8.1 mph - N/A   Overcast
11:15 PM 26.6 °F 18.2 °F 19.4 °F 74% 29.69 in 10.0 mi West 8.1 mph - N/A   Overcast
11:35 PM 26.6 °F 18.2 °F 19.4 °F 74% 29.68 in 10.0 mi West 8.1 mph - N/A   Overcast
11:55 PM 26.6 °F 20.0 °F 19.4 °F 74% 29.68 in 10.0 mi West 5.8 mph - N/A   Overcast